Location: Batang Balui
(2.7000°N, 113.7833°E)
Time: 01:56:31
(UTC+00:00)

CZ-6A DEB - Pass Details

Date: 17 December 2023
Orbit: 666 x 823 km, 98.6° (Epoch: 23 February)

Event Time Altitude Azimuth Distance (km) Brightness Sun altitude
Rises 21:40:47 0° 48° (NE) 3,047 ? -10.3°
Reaches altitude 10° 21:44:22 10° 77° (ENE) 2,109 ? -9.5°
Maximum altitude 21:46:16 12° 102° (ESE) 1,939 ? -9.1°
Drops below altitude 10° 21:48:09 10° 126° (SE) 2,094 ? -8.6°
Sets 21:51:40 0° 156° (SSE) 3,002 ? -7.8°
